Location: Mascot Post Office (historical)
(40.2645°N, 99.5462°W)
Time: 09:52:50
(UTC+00:00)

NOSS 3-4 (C) - Pass Details

Date: 27 October 2020
Orbit: 886 x 1326 km, 63.4° (Epoch: 06 November)

Event Time Altitude Azimuth Distance (km) Brightness Sun altitude
Rises 01:27:53 0° 330° (NNW) 3,791 7.0 -20.8°
Reaches altitude 10° 01:30:54 10° 343° (NNW) 2,906 6.2 -21.4°
Maximum altitude 01:36:40 27° 40° (NE) 2,040 4.8 -22.5°
Enters shadow 01:37:11 27° 46° (NE) 2,059 4.8 -22.6°
